Regional Weather Roundup
Issued by NWS Mt. Holly, NJ

Home | Current Version | Previous Version | Text Only | Print | Product List | Glossary On
Versions: 1 2 3 4 5 6 7 8 9 10 11 12 13 14 15 16 17 18 19 20 21 22 23 24 25 26 27 28 29 30 31 32 33 34 35 36 37 38 39 40 41 42 43 44 45 46 47 48 49 50
000
ASUS41 KPHI 161411
RWRPHI

REGIONAL WEATHER ROUNDUP
NATIONAL WEATHER SERVICE MOUNT HOLLY NJ
1000 AM EDT SUN JUN 16 2019

NOTE:  "FAIR" INDICATES FEW OR NO CLOUDS BELOW 12,000 FEET WITH NO
SIGNIFICANT WEATHER AND/OR OBSTRUCTIONS TO VISIBILITY.

 * = STATION DOES NOT REPORT PRECIPITATION (E.G. RAIN, SNOW, ETC.)
        OR FOG.

NJZ015>026-161500-
SOUTHERN NEW JERSEY

CITY           SKY/WX    TMP DP  RH WIND       PRES   REMARKS
POMONA         FAIR      78  62  57 SW18G26   29.92F
WILDWOOD*      FAIR      77  66  68 S13G21    29.94F
MILLVILLE      FAIR      76  64  66 SW9G17    29.92F
WRIGHTSTOWN    FAIR      77  63  60 SW14      29.87F
MOUNT HOLLY    FAIR      76  62  62 VRB7      29.89F
TRENTON        FAIR      75  63  66 SW13      29.88F

$$
NJZ001>014-161500-
NORTHERN NEW JERSEY

CITY           SKY/WX    TMP DP  RH WIND       PRES   REMARKS
SUSSEX         FAIR      68  64  87 CALM      29.88F
ANDOVER*         N/A     70  61  73 VRB6      29.89F
MORRISTOWN     PTSUNNY   73  63  68 SW9       29.89F
NEWARK         PTSUNNY   77  63  61 SW9       29.88F
TETERBORO      FAIR      74  61  63 S10       29.88F
CALDWELL       FAIR      74  63  68 VRB5      29.89F
SOMERVILLE     FAIR      75  62  64 S7        29.87F
ALLAIRE*       FAIR      77  64  64 SW12      29.91F
TOMS RIVER*    FAIR      78  65  63 SW16      29.91F

$$
PAZ043-044-047-054-055-060>062-066>071-161500-
EASTERN PENNSYLVANIA

CITY           SKY/WX    TMP DP  RH WIND       PRES   REMARKS
PHILADELPHIA   PTSUNNY   73  60  63 SW15      29.89F
NORTH PHILA    FAIR      78  60  53 SW10      29.90F
BLUE BELL*     FAIR      75  62  64 S8        29.89F
DOYLESTOWN     FAIR      75  61  61 S8        29.88F
QUAKERTOWN*    SUNNY     73  63  68 S7        29.89
PERKASIE*      FAIR      72  63  73 SW5       29.90F
POTTSTOWN      FAIR      73  60  63 VRB3      29.90F
LANCASTER      PTSUNNY   75  61  61 S5        29.88S
COATESVILLE    FAIR      73  63  68 VRB7      29.91F
WEST CHESTER   FAIR      75  61  60 S7        29.90F
READING        FAIR      76  64  66 SW6       29.86F
ALLENTOWN      FAIR      74  59  59 S7        29.87F
QN CITY/ALNTWN FAIR     N/A N/A N/A S7        29.89S
MOUNT POCONO   FAIR      65  57  75 S5        29.91S
HAZLETON       CLOUDY    66  57  72 CALM      29.93R
LEHIGHTON      PTSUNNY   70  61  73 CALM      29.89S
WILKES BARRE   CLOUDY    68  64  87 CALM      29.87S

$$
DEZALL-MDZ008-012-015-019-020-161500-
DELAWARE AND EASTERN MARYLAND

CITY           SKY/WX    TMP DP  RH WIND       PRES   REMARKS
WILMINGTON     FAIR      77  63  61 SW10      29.90F
DOVER          FAIR      77  63  63 S16       29.90F
CHESWOLD       SUNNY     77  63  61 SW12G20   29.91F
GEORGETOWN     FAIR      79  64  60 SW15G24   29.94F
EASTON         MOSUNNY   79  64  61 S13G21    29.96F
PATUXENT       PTSUNNY   77  64  64 SW20G28   29.93
OCEAN CITY     FAIR      75  67  76 SW14G24   29.97F
WALLOPS ISLAND NOT AVBL
CAMBRIDGE      SUNNY     75  63  64 SW13      29.94F
SALISBURY      FAIR      79  64  60 SW15G23   29.95F

$$
PAZ001-021-NYZ056-072-MDZ011-DCZ001-161500-
OTHER NEARBY LOCATIONS

CITY           SKY/WX    TMP DP  RH WIND       PRES   REMARKS
HARRISBURG     CLOUDY    72  62  71 S3        29.86S
STATE COLLEGE  CLOUDY    64  63  94 CALM      29.85S
WILLIAMSPORT   CLOUDY    66  62  87 NE9       29.82F
BINGHAMTON     LGT RAIN  62  61  96 S6        29.85F FOG
NEW YORK CITY  FAIR      71  63  75 CALM      29.92S
BALTIMORE      PTSUNNY   77  61  57 SW9       29.90R
WASHINGTON DC  PTSUNNY   76  60  57 S14       29.92R

$$



USA.gov is the U.S. government's official web portal to all federal, state and local government web resources and services.